Regional Weather Roundup
Issued by NWS

Home | Current Version | Previous Version | Graphics & Text | Print | Product List | Glossary On
Versions: 1 2 3 4 5 6 7 8 9 10 11 12 13 14 15 16 17 18 19 20 21 22 23 24 25 26 27 28 29 30 31 32 33 34 35 36 37 38 39 40 41 42 43 44 45 46 47 48 49 50
000
ASUS43 KLOT 261604
RWRIL

ILLINOIS REGIONAL WEATHER ROUNDUP
NATIONAL WEATHER SERVICE CHICAGO/ROMEOVILLE IL
1100 AM CDT MON JUN 26 2017

NOTE: "FAIR" INDICATES FEW OR NO CLOUDS BELOW 12,000 FEET WITH NO
SIGNIFICANT WEATHER AND/OR OBSTRUCTIONS TO VISIBILITY.

* THESE STATIONS ARE NOT UNDER NWS QUALITY CONTROL. THEY ALSO MAY NOT
  REPORT WEATHER SUCH AS PRECIPITATION OR FOG.

ILZ001-002-007-009-015-016-024-261700-
NORTHWEST ILLINOIS

CITY           SKY/WX    TMP DP  RH WIND       PRES   REMARKS
MOLINE         PTSUNNY   67  51  56 W15G21    30.17S
STERLING*      SUNNY     70  51  51 W16G22    30.14S
SAVANNA*       MOSUNNY   68  48  49 NW9       30.14S
$$

ILZ003-004-008-010-011-017-018-261700-
NORTH CENTRAL ILLINOIS

CITY           SKY/WX    TMP DP  RH WIND       PRES   REMARKS
ROCKFORD       MOSUNNY   67  48  50 NW14      30.12F
FREEPORT*      MOSUNNY   65  48  53 NW13      30.14S
ROCHELLE*      SUNNY     67  48  51 W13G22    30.12F
DE KALB*       MOSUNNY   68  47  47 W21G26    30.12S
PERU*          CLOUDY    65  50  57 W15       30.15S
$$

ILZ005-006-012>014-019>023-261700-
NORTHEAST ILLINOIS

CITY           SKY/WX    TMP DP  RH WIND       PRES   REMARKS
CHICAGO-OHARE  MOSUNNY   69  43  38 W18G26    30.08F
CHICAGO-MIDWAY PTSUNNY   67  45  45 W15       30.09F
AURORA         MOSUNNY   70  48  45 W16G29    30.11
LANSING*       MOSUNNY   69  42  38 NW12G21   30.10F
JOLIET*        PTSUNNY   71  45  39 W9G18     30.11F
WAUKEGAN       MOSUNNY   67  50  54 W9        30.07F
DUPAGE AIRPORT MOSUNNY   68  48  48 W17G25    30.10F
WHEELING       MOSUNNY   69  47  45 NW14G24   30.09F
MORRIS*        MOSUNNY   70  44  38 W14       30.11S
ROMEOVILLE*    MOSUNNY   70  41  35 W15       30.11F
NORTHERLY ISL    N/A     67  39  35 W6          N/A
$$

LMZ740>746-261700-
SOUTHERN LAKE MICHIGAN

STATION/POSITION SKY/WX   TEMP    WIND        PRES    VSBY  WAVE
                          AIR SEA DIR/SP/G                  HT/PER
                          (F)     (DEG/KT/KT) (MB)    (MI)  (FT/S)
SOUTHERN BUOY              60 61  300/ 12/ 14 1018.4          3/ 4
WILMETTE HARBOR            65 64  270/ 14/ 17   N/A           1/ 2
HARRISON CRIB              66     270/ 15/ 19   N/A
BURNHAM HARBOR             68                   N/A
CALUMET HARBOR             67     260/  5/ 11 1018.7S
BURNS HARBOR               66     270/ 13/ 15 1019.6F
MICHIGAN CITY              63     240/ 14/ 16   N/A
MICHIGAN CITY 6N           64 66  260/ 12/ 14   N/A           2/ 4
ST. JOSEPH                 63 69  270/ 10/ 14 1019.2S         3/ 5
$$

ILZ025>027-034>036-040-047-049-050-058-095>099-261700-
WEST-CENTRAL ILLINOIS

CITY           SKY/WX    TMP DP  RH WIND       PRES   REMARKS
QUINCY         CLOUDY    65  49  56 NW10      30.25R
GALESBURG*     CLOUDY    62  51  66 SW7       30.20F
MACOMB*        LGT RAIN  59  54  82 W13G24    30.25R
JACKSONVILLE*  PTSUNNY   68  48  49 N10       30.22R
PITTSFIELD*    MOSUNNY   69  49  48 N9        30.25R
$$

ILZ028>032-037-038-041>044-048-051>054-059>061-261700-
CENTRAL ILLINOIS

CITY           SKY/WX    TMP DP  RH WIND       PRES   REMARKS
PONTIAC        CLOUDY    68  46  45 W14       30.15F
BLOOMINGTON    PTSUNNY   67  45  45 W15G23    30.18F
DECATUR        SUNNY     72  44  36 NW17G23   30.19S
PEORIA         PTSUNNY   65  50  58 W8        30.19R
LACON*         CLOUDY    67  51  56 W9G20     30.16S
LINCOLN*       PTSUNNY   68  48  47 W5        30.19S
SPRINGFIELD    MOSUNNY   71  47  42 NW16G24   30.21R
TAYLORVILLE    SUNNY     73  47  40 NW12G17   30.20S
$$

ILZ033-039-045-046-055>057-062-063-261700-
EAST-CENTRAL ILLINOIS

CITY           SKY/WX    TMP DP  RH WIND       PRES   REMARKS
CHAMPAIGN      SUNNY     70  45  40 NW14G20   30.17F
RANTOUL*       MOSUNNY   72  43  35 W16       30.16F
MATTOON        SUNNY     72  49  44 W13G21    30.18S
PARIS*         SUNNY     71  53  52 W14       30.17F
$$

ILZ079-100>102-261700-
SOUTHWEST ILLINOIS

CITY           SKY/WX    TMP DP  RH WIND       PRES   REMARKS
ALTON          MOSUNNY   73  54  49 SW10      30.21F
BELLEVILLE     MOSUNNY   76  48  37 S5        30.21F
CAHOKIA*       SUNNY     77  45  32 VRB6      30.20F
SPARTA*        SUNNY     75  46  36 W7        30.23S
$$

ILZ064>066-069>071-074>076-080>082-084>086-088>090-092>094-261700-
SOUTH-CENTRAL ILLINOIS

CITY           SKY/WX    TMP DP  RH WIND       PRES   REMARKS
CARBONDALE     SUNNY     74  49  41 CALM      30.22F
CAIRO*         PTSUNNY   73  49  41 E3        30.22S
EFFINGHAM*     SUNNY     74  49  40 W8        30.21F
MARION         MOSUNNY   75  48  38 W5        30.22F
MT. VERNON     SUNNY     74  49  41 VRB5      30.21F
CENTRALIA*     SUNNY     76  52  42 W10       30.21S
SALEM*         SUNNY     75  47  36 W8        30.21S
METROPOLIS*    CLOUDY    73  51  46 CALM      30.23S
$$

ILZ067-068-072-073-078-083-087-091-261700-
SOUTHEAST ILLINOIS

CITY           SKY/WX    TMP DP  RH WIND       PRES   REMARKS
LAWRENCEVILLE  SUNNY     74  49  41 W13       30.20S
FLORA*         SUNNY     75  47  36 NW9       30.20F
FAIRFIELD*     SUNNY     74  48  39 CALM      30.19F
HARRISBURG*    MOSUNNY   74  48  38 N3        30.22F
ROBINSON*      SUNNY     72  51  47 W8        30.20S
CARMI*         SUNNY     74  48  40 CALM      30.21S
$$

ABBREVIATIONS USED IN REMARKS
   TC - TEMPERATURE IN CELSIUS
  WCI - WIND CHILL INDEX
   HX - HEAT INDEX
  VSB - VISIBILITY
$$





USA.gov is the U.S. government's official web portal to all federal, state and local government web resources and services.